Location: Kerguer�zec
(48.4509°N, 4.7600°W)
Time: 02:32:43
(UTC+00:00)

Cosmos 1455 - Pass Details

Date: 09 April 2020
Orbit: 498 x 524 km, 82.5° (Epoch: 03 June)

Event Time Altitude Azimuth Distance (km) Brightness Sun altitude
Exits shadow 21:30:55 45° 40° (NE) 715 2.8 -22.4°
Drops below altitude 10° 21:33:48 10° 16° (NNE) 1,760 5.2 -22.7°
Sets 21:35:59 0° 13° (NNE) 2,657 6.2 -23.0°
